Precipitable_Water
0.31 0.26 0.25 0.25 0.27 0.26 0.26 0.26 0.25 0.25 0.25 0.24 0.22 0.21 0.20 0.21 0.26 0.27 0.29 0.31 0.35 0.31 0.32 0.33 0.34 0.34 0.35 0.39 0.42 0.47 0.49 0.47 0.46 0.45 0.45 0.47 0.48 0.49 0.50 0.51 0.52 0.53 0.54 0.59 0.60 0.61 0.60 0.61 0.62 0.62 0.62 0.63 0.65 0.64 0.64 0.63 0.63 0.64 0.64 0.63 0.60 0.64 0.65 0.66 0.65 0.65 0.66 0.65 0.67 0.74 0.79 0.81 0.88 0.88 0.89 0.91 0.98 1.04 1.03 1.04 1.06 1.09 1.13 1.17 1.18 1.25
0.35 0.26 0.25 0.26 0.26 0.27 0.27 0.28 0.25 0.23 0.22 0.22 0.21 0.21 0.22 0.21 0.21 0.25 0.24 0.28 0.29 0.30 0.30 0.35 0.32 0.32 0.34 0.38 0.42 0.46 0.46 0.44 0.45 0.45 0.45 0.47 0.50 0.50 0.50 0.50 0.51 0.55 0.58 0.58 0.58 0.59 0.59 0.60 0.61 0.62 0.62 0.62 0.58 0.60 0.61 0.60 0.62 0.63 0.63 0.60 0.60 0.62 0.61 0.63 0.63 0.60 0.59 0.58 0.59 0.60 0.67 0.75 0.80 0.84 0.86 0.84 0.93 0.98 1.01 1.03 1.03 1.04 1.07 1.09 1.15 1.19
0.28 0.27 0.25 0.27 0.28 0.29 0.30 0.28 0.27 0.24 0.21 0.21 0.21 0.22 0.20 0.24 0.24 0.25 0.26 0.29 0.30 0.31 0.29 0.32 0.30 0.31 0.34 0.38 0.42 0.44 0.44 0.45 0.46 0.47 0.48 0.49 0.48 0.49 0.50 0.51 0.52 0.52 0.52 0.53 0.54 0.55 0.55 0.56 0.56 0.57 0.58 0.58 0.58 0.58 0.58 0.60 0.60 0.61 0.61 0.62 0.62 0.64 0.62 0.61 0.62 0.58 0.56 0.56 0.59 0.60 0.62 0.68 0.73 0.83 0.85 0.87 0.88 0.89 0.93 0.99 1.01 1.04 1.06 1.06 1.07 1.13
0.27 0.28 0.28 0.30 0.29 0.28 0.28 0.28 0.26 0.24 0.24 0.22 0.20 0.20 0.21 0.22 0.18 0.18 0.24 0.28 0.28 0.30 0.28 0.31 0.29 0.31 0.35 0.38 0.39 0.42 0.42 0.43 0.45 0.46 0.47 0.50 0.48 0.46 0.48 0.49 0.49 0.49 0.49 0.48 0.49 0.49 0.52 0.53 0.54 0.54 0.55 0.56 0.57 0.56 0.57 0.58 0.59 0.61 0.62 0.62 0.62 0.63 0.63 0.63 0.64 0.63 0.61 0.58 0.59 0.62 0.64 0.68 0.71 0.72 0.79 0.81 0.82 0.84 0.86 0.91 1.01 1.03 1.05 1.06 1.05 1.09
0.28 0.29 0.31 0.31 0.30 0.28 0.26 0.26 0.25 0.24 0.25 0.26 0.23 0.22 0.23 0.20 0.24 0.23 0.24 0.27 0.28 0.31 0.31 0.29 0.28 0.28 0.31 0.30 0.32 0.37 0.41 0.40 0.42 0.42 0.43 0.45 0.47 0.48 0.49 0.49 0.50 0.48 0.48 0.48 0.48 0.50 0.51 0.52 0.53 0.53 0.54 0.55 0.53 0.55 0.55 0.56 0.56 0.57 0.58 0.59 0.59 0.60 0.62 0.63 0.64 0.64 0.61 0.59 0.58 0.59 0.60 0.63 0.69 0.75 0.76 0.77 0.78 0.82 0.83 0.83 0.90 0.96 1.02 1.04 1.04 1.06
0.27 0.29 0.32 0.29 0.28 0.29 0.27 0.26 0.27 0.26 0.23 0.25 0.28 0.27 0.24 0.23 0.22 0.24 0.24 0.23 0.22 0.22 0.29 0.24 0.20 0.21 0.29 0.30 0.31 0.35 0.36 0.37 0.40 0.41 0.41 0.43 0.45 0.47 0.47 0.47 0.49 0.50 0.52 0.51 0.50 0.51 0.51 0.52 0.53 0.53 0.53 0.53 0.53 0.54 0.56 0.58 0.57 0.58 0.59 0.59 0.59 0.59 0.60 0.59 0.58 0.58 0.57 0.56 0.54 0.54 0.52 0.50 0.55 0.60 0.66 0.65 0.70 0.79 0.81 0.84 0.95 1.02 1.05 1.05 1.04 1.06
0.28 0.30 0.29 0.27 0.26 0.26 0.26 0.27 0.29 0.26 0.27 0.24 0.26 0.28 0.28 0.28 0.26 0.24 0.23 0.22 0.20 0.20 0.25 0.28 0.20 0.21 0.33 0.29 0.32 0.35 0.35 0.38 0.40 0.43 0.43 0.45 0.46 0.47 0.47 0.49 0.51 0.53 0.53 0.54 0.54 0.53 0.53 0.53 0.53 0.53 0.51 0.50 0.49 0.49 0.53 0.53 0.52 0.53 0.54 0.54 0.55 0.56 0.56 0.57 0.56 0.56 0.57 0.55 0.56 0.56 0.55 0.55 0.54 0.54 0.60 0.68 0.73 0.77 0.81 0.82 0.81 0.88 0.99 1.04 1.06 1.07
0.30 0.29 0.29 0.29 0.28 0.26 0.26 0.26 0.27 0.27 0.26 0.26 0.32 0.29 0.29 0.29 0.27 0.25 0.25 0.23 0.31 0.33 0.31 0.28 0.24 0.22 0.28 0.31 0.35 0.38 0.37 0.39 0.40 0.42 0.45 0.46 0.47 0.49 0.50 0.52 0.52 0.53 0.54 0.55 0.53 0.55 0.56 0.55 0.53 0.50 0.49 0.46 0.45 0.46 0.46 0.46 0.46 0.46 0.46 0.47 0.48 0.51 0.54 0.58 0.60 0.59 0.60 0.56 0.55 0.55 0.55 0.57 0.58 0.60 0.62 0.68 0.71 0.75 0.78 0.76 0.77 0.80 0.88 1.00 1.08 1.07
0.34 0.29 0.30 0.30 0.30 0.29 0.29 0.32 0.30 0.28 0.27 0.32 0.31 0.30 0.30 0.29 0.28 0.28 0.25 0.27 0.29 0.26 0.25 0.25 0.28 0.19 0.19 0.32 0.40 0.40 0.35 0.37 0.40 0.43 0.46 0.48 0.48 0.50 0.51 0.52 0.54 0.56 0.56 0.56 0.55 0.55 0.54 0.53 0.52 0.50 0.47 0.45 0.45 0.43 0.43 0.44 0.44 0.45 0.46 0.46 0.46 0.50 0.56 0.60 0.62 0.62 0.63 0.64 0.62 0.58 0.57 0.56 0.60 0.62 0.64 0.68 0.72 0.71 0.75 0.74 0.76 0.78 0.83 0.92 1.02 1.08
0.33 0.35 0.33 0.33 0.32 0.29 0.34 0.34 0.32 0.30 0.26 0.29 0.33 0.33 0.32 0.31 0.30 0.28 0.28 0.28 0.29 0.23 0.22 0.26 0.28 0.20 0.22 0.36 0.38 0.41 0.36 0.36 0.40 0.45 0.49 0.51 0.51 0.51 0.53 0.55 0.57 0.58 0.58 0.56 0.55 0.55 0.53 0.52 0.51 0.50 0.48 0.45 0.43 0.43 0.44 0.45 0.44 0.43 0.43 0.42 0.42 0.47 0.56 0.60 0.63 0.65 0.66 0.68 0.68 0.63 0.61 0.59 0.57 0.62 0.65 0.67 0.66 0.68 0.71 0.72 0.75 0.78 0.80 0.84 0.93 1.05
0.34 0.38 0.39 0.35 0.34 0.35 0.34 0.35 0.35 0.32 0.32 0.36 0.34 0.31 0.30 0.31 0.31 0.31 0.31 0.31 0.27 0.20 0.21 0.30 0.32 0.27 0.21 0.30 0.37 0.34 0.33 0.37 0.42 0.47 0.52 0.54 0.53 0.53 0.55 0.54 0.54 0.55 0.54 0.53 0.53 0.52 0.52 0.53 0.52 0.49 0.46 0.44 0.44 0.45 0.45 0.44 0.43 0.43 0.43 0.42 0.41 0.46 0.55 0.61 0.64 0.66 0.68 0.71 0.72 0.68 0.66 0.64 0.61 0.63 0.66 0.65 0.65 0.67 0.70 0.73 0.76 0.78 0.78 0.82 0.88 0.95
0.31 0.33 0.36 0.36 0.39 0.36 0.36 0.34 0.37 0.36 0.35 0.34 0.32 0.30 0.30 0.30 0.31 0.30 0.29 0.30 0.22 0.19 0.28 0.29 0.29 0.30 0.20 0.24 0.32 0.39 0.42 0.42 0.43 0.44 0.50 0.54 0.53 0.53 0.54 0.54 0.54 0.54 0.53 0.52 0.52 0.52 0.51 0.51 0.50 0.48 0.45 0.45 0.45 0.45 0.44 0.44 0.44 0.43 0.43 0.43 0.41 0.45 0.53 0.60 0.65 0.67 0.71 0.73 0.75 0.75 0.74 0.71 0.72 0.71 0.67 0.65 0.66 0.69 0.68 0.71 0.74 0.77 0.78 0.80 0.87 0.93
0.30 0.30 0.35 0.35 0.39 0.38 0.33 0.31 0.32 0.35 0.35 0.33 0.33 0.31 0.25 0.26 0.24 0.22 0.26 0.20 0.20 0.20 0.32 0.33 0.29 0.25 0.23 0.25 0.31 0.38 0.40 0.42 0.43 0.45 0.49 0.53 0.54 0.54 0.53 0.54 0.54 0.55 0.54 0.52 0.52 0.52 0.51 0.48 0.48 0.46 0.45 0.45 0.43 0.43 0.43 0.43 0.43 0.42 0.42 0.41 0.39 0.42 0.52 0.59 0.65 0.68 0.72 0.76 0.80 0.80 0.81 0.82 0.84 0.81 0.81 0.77 0.70 0.72 0.74 0.75 0.75 0.75 0.75 0.80 0.81 0.86
0.28 0.31 0.32 0.34 0.35 0.37 0.35 0.28 0.28 0.25 0.31 0.32 0.29 0.29 0.25 0.22 0.21 0.18 0.22 0.24 0.23 0.27 0.29 0.28 0.31 0.21 0.24 0.29 0.34 0.34 0.41 0.44 0.45 0.47 0.51 0.52 0.52 0.51 0.52 0.53 0.54 0.54 0.54 0.53 0.53 0.52 0.50 0.48 0.45 0.45 0.43 0.42 0.42 0.42 0.42 0.42 0.42 0.41 0.41 0.40 0.37 0.40 0.53 0.60 0.66 0.71 0.75 0.80 0.82 0.86 0.87 0.88 0.90 0.89 0.87 0.91 0.88 0.84 0.81 0.82 0.80 0.79 0.79 0.80 0.83 0.84
0.21 0.20 0.28 0.31 0.30 0.37 0.34 0.34 0.31 0.30 0.30 0.30 0.34 0.31 0.29 0.25 0.21 0.18 0.19 0.17 0.20 0.24 0.32 0.33 0.22 0.20 0.21 0.32 0.35 0.37 0.41 0.44 0.46 0.47 0.51 0.53 0.52 0.51 0.51 0.52 0.53 0.53 0.52 0.53 0.52 0.50 0.49 0.47 0.45 0.43 0.43 0.41 0.41 0.42 0.41 0.43 0.42 0.41 0.39 0.38 0.36 0.40 0.54 0.62 0.67 0.73 0.78 0.82 0.88 0.93 0.95 0.94 0.93 0.92 0.91 0.92 0.94 0.95 0.93 0.91 0.90 0.88 0.87 0.87 0.90 0.92
0.23 0.27 0.36 0.35 0.39 0.37 0.34 0.34 0.31 0.28 0.26 0.29 0.30 0.30 0.25 0.24 0.30 0.21 0.26 0.22 0.23 0.23 0.24 0.28 0.21 0.28 0.28 0.38 0.37 0.37 0.39 0.42 0.44 0.46 0.49 0.49 0.49 0.50 0.50 0.49 0.50 0.50 0.51 0.52 0.50 0.49 0.47 0.46 0.45 0.44 0.43 0.42 0.42 0.43 0.43 0.43 0.41 0.39 0.37 0.37 0.36 0.42 0.58 0.65 0.68 0.74 0.79 0.84 0.89 0.96 0.96 0.95 0.95 0.93 0.93 0.92 0.94 0.96 0.93 0.92 0.95 0.93 0.90 0.92 0.95 1.00
0.21 0.21 0.33 0.34 0.37 0.36 0.36 0.35 0.31 0.29 0.21 0.29 0.24 0.21 0.27 0.33 0.27 0.23 0.21 0.25 0.23 0.19 0.16 0.26 0.26 0.27 0.34 0.33 0.34 0.36 0.37 0.41 0.43 0.45 0.45 0.44 0.45 0.47 0.47 0.48 0.49 0.49 0.51 0.51 0.49 0.48 0.47 0.46 0.45 0.45 0.44 0.43 0.43 0.42 0.42 0.42 0.41 0.39 0.37 0.35 0.36 0.44 0.60 0.66 0.67 0.74 0.80 0.84 0.86 0.91 0.94 0.95 0.93 0.93 0.89 0.88 0.89 0.92 0.97 0.98 0.96 0.92 0.93 0.93 0.96 0.96
0.26 0.25 0.32 0.31 0.30 0.35 0.39 0.37 0.35 0.33 0.32 0.29 0.22 0.28 0.32 0.34 0.33 0.25 0.19 0.24 0.20 0.16 0.19 0.24 0.19 0.20 0.24 0.22 0.37 0.35 0.33 0.37 0.40 0.42 0.43 0.43 0.45 0.44 0.45 0.47 0.47 0.49 0.50 0.51 0.50 0.50 0.48 0.46 0.45 0.45 0.46 0.44 0.42 0.41 0.41 0.41 0.41 0.40 0.37 0.36 0.37 0.46 0.62 0.65 0.66 0.71 0.78 0.82 0.84 0.87 0.90 0.93 0.94 0.94 0.93 0.92 0.90 0.92 0.95 0.94 0.97 0.98 0.95 0.93 0.94 0.96
0.29 0.23 0.29 0.31 0.34 0.36 0.38 0.36 0.32 0.35 0.36 0.29 0.32 0.38 0.25 0.25 0.22 0.27 0.21 0.16 0.15 0.14 0.16 0.19 0.23 0.20 0.21 0.25 0.32 0.32 0.31 0.35 0.38 0.41 0.41 0.40 0.43 0.44 0.45 0.46 0.48 0.50 0.50 0.48 0.48 0.48 0.46 0.45 0.47 0.46 0.44 0.42 0.42 0.43 0.41 0.41 0.40 0.40 0.37 0.37 0.40 0.48 0.65 0.65 0.66 0.70 0.76 0.81 0.83 0.86 0.88 0.91 0.93 0.96 0.95 0.96 0.96 0.95 0.93 0.91 0.91 0.91 0.93 0.95 0.97 0.95
0.28 0.22 0.28 0.34 0.31 0.35 0.34 0.33 0.27 0.31 0.35 0.36 0.35 0.30 0.32 0.26 0.24 0.24 0.24 0.21 0.19 0.14 0.15 0.15 0.21 0.19 0.25 0.28 0.31 0.32 0.34 0.35 0.38 0.39 0.39 0.40 0.43 0.43 0.44 0.45 0.47 0.48 0.48 0.48 0.48 0.48 0.48 0.47 0.46 0.45 0.43 0.40 0.40 0.40 0.39 0.40 0.40 0.38 0.36 0.35 0.39 0.49 0.67 0.66 0.65 0.68 0.71 0.76 0.78 0.80 0.85 0.89 0.91 0.93 0.93 0.93 0.93 0.94 0.93 0.92 0.91 0.90 0.90 0.92 0.97 0.97
0.26 0.25 0.18 0.32 0.35 0.33 0.26 0.30 0.29 0.34 0.31 0.29 0.28 0.27 0.28 0.26 0.31 0.25 0.26 0.20 0.18 0.16 0.15 0.15 0.14 0.17 0.28 0.34 0.30 0.31 0.35 0.38 0.39 0.38 0.40 0.41 0.43 0.42 0.42 0.44 0.46 0.48 0.48 0.48 0.48 0.47 0.47 0.46 0.46 0.46 0.45 0.41 0.41 0.40 0.40 0.40 0.38 0.37 0.34 0.33 0.38 0.45 0.62 0.63 0.64 0.67 0.69 0.73 0.75 0.76 0.77 0.79 0.81 0.83 0.88 0.89 0.92 0.90 0.90 0.91 0.91 0.91 0.91 0.92 0.94 0.94
0.21 0.24 0.17 0.23 0.26 0.24 0.28 0.39 0.37 0.36 0.38 0.35 0.30 0.29 0.29 0.25 0.21 0.18 0.18 0.29 0.23 0.19 0.16 0.15 0.13 0.19 0.32 0.32 0.31 0.31 0.35 0.37 0.40 0.42 0.42 0.43 0.43 0.42 0.44 0.46 0.47 0.48 0.48 0.47 0.46 0.44 0.44 0.45 0.46 0.45 0.43 0.41 0.39 0.38 0.38 0.38 0.37 0.35 0.32 0.31 0.36 0.42 0.56 0.62 0.62 0.66 0.68 0.72 0.75 0.75 0.76 0.78 0.80 0.82 0.83 0.84 0.87 0.87 0.88 0.89 0.90 0.91 0.92 0.91 0.94 0.95
0.27 0.25 0.21 0.18 0.21 0.25 0.36 0.37 0.40 0.39 0.38 0.36 0.34 0.32 0.33 0.30 0.27 0.22 0.16 0.19 0.24 0.23 0.22 0.20 0.15 0.17 0.33 0.32 0.31 0.32 0.34 0.35 0.40 0.42 0.43 0.44 0.43 0.42 0.44 0.46 0.48 0.48 0.47 0.47 0.45 0.43 0.43 0.45 0.45 0.43 0.41 0.39 0.38 0.37 0.37 0.37 0.35 0.33 0.32 0.31 0.33 0.37 0.50 0.62 0.63 0.65 0.68 0.69 0.71 0.74 0.76 0.77 0.77 0.79 0.80 0.81 0.83 0.83 0.84 0.87 0.89 0.91 0.90 0.90 0.92 0.97
0.30 0.21 0.18 0.18 0.24 0.27 0.31 0.34 0.37 0.39 0.39 0.32 0.31 0.32 0.30 0.26 0.28 0.25 0.25 0.27 0.21 0.21 0.19 0.20 0.17 0.20 0.33 0.34 0.31 0.34 0.35 0.36 0.38 0.41 0.42 0.44 0.43 0.42 0.44 0.43 0.44 0.46 0.46 0.46 0.45 0.43 0.45 0.46 0.47 0.44 0.41 0.37 0.36 0.36 0.36 0.36 0.34 0.33 0.32 0.32 0.32 0.33 0.41 0.57 0.64 0.64 0.65 0.66 0.67 0.69 0.70 0.71 0.73 0.74 0.74 0.76 0.81 0.82 0.84 0.86 0.87 0.88 0.88 0.88 0.91 0.90
0.23 0.31 0.19 0.17 0.17 0.19 0.22 0.26 0.27 0.33 0.33 0.29 0.30 0.35 0.32 0.33 0.31 0.29 0.28 0.27 0.18 0.19 0.22 0.19 0.14 0.19 0.35 0.35 0.33 0.34 0.33 0.34 0.35 0.38 0.41 0.42 0.43 0.42 0.40 0.40 0.43 0.45 0.45 0.44 0.43 0.43 0.45 0.45 0.44 0.42 0.39 0.36 0.36 0.35 0.36 0.34 0.33 0.32 0.32 0.33 0.32 0.33 0.37 0.46 0.59 0.64 0.64 0.65 0.65 0.66 0.67 0.68 0.69 0.70 0.72 0.74 0.79 0.81 0.84 0.85 0.85 0.87 0.85 0.86 0.87 0.88
0.24 0.25 0.21 0.14 0.13 0.11 0.11 0.14 0.20 0.24 0.26 0.27 0.30 0.34 0.31 0.29 0.29 0.25 0.19 0.22 0.18 0.21 0.24 0.20 0.18 0.25 0.35 0.34 0.33 0.32 0.32 0.33 0.36 0.38 0.40 0.42 0.41 0.40 0.39 0.40 0.43 0.44 0.44 0.44 0.44 0.44 0.43 0.44 0.43 0.42 0.40 0.37 0.37 0.34 0.34 0.33 0.32 0.32 0.32 0.34 0.35 0.34 0.34 0.39 0.48 0.57 0.61 0.64 0.64 0.64 0.66 0.68 0.70 0.71 0.73 0.74 0.77 0.79 0.80 0.81 0.82 0.84 0.85 0.85 0.85 0.89
0.28 0.29 0.23 0.19 0.17 0.18 0.22 0.28 0.34 0.30 0.28 0.24 0.29 0.30 0.29 0.30 0.32 0.30 0.28 0.24 0.20 0.23 0.24 0.25 0.23 0.23 0.26 0.31 0.34 0.33 0.33 0.33 0.34 0.37 0.37 0.37 0.39 0.40 0.41 0.42 0.43 0.43 0.42 0.43 0.44 0.45 0.45 0.44 0.44 0.42 0.40 0.38 0.37 0.36 0.34 0.32 0.31 0.31 0.32 0.33 0.35 0.35 0.35 0.36 0.41 0.47 0.53 0.59 0.62 0.62 0.64 0.66 0.69 0.72 0.73 0.76 0.77 0.79 0.78 0.78 0.79 0.80 0.82 0.85 0.87 0.87
0.29 0.23 0.26 0.24 0.21 0.20 0.25 0.28 0.29 0.26 0.24 0.28 0.29 0.29 0.32 0.31 0.31 0.28 0.24 0.21 0.29 0.25 0.19 0.25 0.28 0.26 0.26 0.28 0.32 0.36 0.39 0.36 0.36 0.37 0.37 0.37 0.38 0.38 0.40 0.43 0.42 0.42 0.42 0.44 0.44 0.43 0.43 0.44 0.44 0.41 0.40 0.38 0.36 0.35 0.34 0.32 0.31 0.31 0.32 0.32 0.33 0.35 0.35 0.36 0.37 0.39 0.45 0.51 0.58 0.61 0.62 0.66 0.69 0.71 0.73 0.76 0.78 0.79 0.78 0.78 0.77 0.78 0.81 0.85 0.87 0.89
0.30 0.23 0.30 0.23 0.22 0.24 0.25 0.23 0.26 0.25 0.25 0.26 0.28 0.29 0.29 0.31 0.31 0.26 0.26 0.28 0.28 0.23 0.19 0.25 0.32 0.28 0.29 0.30 0.33 0.36 0.40 0.40 0.40 0.39 0.40 0.40 0.40 0.41 0.41 0.41 0.40 0.39 0.41 0.42 0.42 0.43 0.44 0.43 0.43 0.42 0.39 0.37 0.36 0.34 0.32 0.31 0.30 0.32 0.33 0.34 0.33 0.35 0.34 0.36 0.35 0.35 0.38 0.44 0.49 0.56 0.61 0.65 0.68 0.69 0.71 0.74 0.75 0.76 0.77 0.76 0.76 0.77 0.79 0.83 0.86 0.89
0.31 0.25 0.31 0.27 0.24 0.25 0.25 0.24 0.24 0.21 0.22 0.23 0.22 0.22 0.23 0.24 0.25 0.27 0.27 0.28 0.27 0.24 0.27 0.27 0.26 0.26 0.31 0.33 0.35 0.38 0.43 0.44 0.42 0.43 0.42 0.39 0.39 0.41 0.42 0.40 0.39 0.39 0.41 0.42 0.43 0.45 0.46 0.44 0.43 0.41 0.38 0.36 0.35 0.33 0.30 0.29 0.29 0.30 0.31 0.32 0.33 0.34 0.35 0.36 0.34 0.34 0.35 0.38 0.42 0.48 0.53 0.60 0.64 0.66 0.68 0.70 0.71 0.72 0.72 0.72 0.73 0.74 0.74 0.77 0.81 0.84
0.29 0.27 0.31 0.32 0.25 0.25 0.29 0.28 0.26 0.25 0.24 0.21 0.23 0.23 0.23 0.23 0.22 0.24 0.25 0.25 0.26 0.26 0.27 0.26 0.25 0.24 0.30 0.37 0.38 0.41 0.43 0.42 0.39 0.39 0.40 0.40 0.39 0.40 0.40 0.39 0.39 0.39 0.41 0.44 0.45 0.47 0.46 0.44 0.43 0.40 0.37 0.36 0.34 0.32 0.30 0.29 0.30 0.31 0.33 0.32 0.32 0.33 0.35 0.35 0.34 0.35 0.36 0.37 0.40 0.42 0.45 0.49 0.53 0.58 0.61 0.64 0.67 0.69 0.69 0.70 0.71 0.71 0.71 0.72 0.74 0.76
0.35 0.30 0.35 0.30 0.23 0.22 0.29 0.26 0.28 0.27 0.25 0.23 0.21 0.21 0.21 0.21 0.21 0.23 0.22 0.24 0.23 0.21 0.24 0.25 0.23 0.22 0.30 0.37 0.41 0.41 0.40 0.38 0.37 0.37 0.38 0.38 0.40 0.41 0.40 0.39 0.39 0.40 0.41 0.43 0.46 0.47 0.45 0.44 0.43 0.39 0.37 0.36 0.34 0.33 0.31 0.29 0.29 0.31 0.30 0.31 0.32 0.34 0.35 0.35 0.35 0.36 0.37 0.38 0.40 0.41 0.41 0.43 0.45 0.47 0.49 0.52 0.54 0.57 0.61 0.62 0.64 0.65 0.66 0.68 0.68 0.70
0.38 0.33 0.29 0.27 0.22 0.21 0.29 0.28 0.25 0.24 0.21 0.17 0.17 0.21 0.22 0.23 0.24 0.24 0.25 0.28 0.28 0.29 0.25 0.21 0.21 0.30 0.33 0.42 0.38 0.39 0.38 0.38 0.38 0.38 0.39 0.40 0.41 0.41 0.41 0.39 0.40 0.42 0.43 0.44 0.46 0.45 0.45 0.44 0.43 0.40 0.37 0.35 0.34 0.31 0.32 0.30 0.30 0.30 0.30 0.30 0.33 0.35 0.34 0.34 0.35 0.36 0.36 0.38 0.38 0.39 0.41 0.42 0.42 0.42 0.43 0.45 0.46 0.48 0.49 0.49 0.50 0.52 0.54 0.56 0.61 0.64
0.37 0.33 0.29 0.31 0.23 0.22 0.26 0.28 0.27 0.20 0.13 0.14 0.27 0.23 0.22 0.21 0.23 0.21 0.21 0.25 0.29 0.30 0.26 0.29 0.31 0.35 0.38 0.38 0.35 0.36 0.40 0.41 0.40 0.43 0.44 0.44 0.43 0.42 0.41 0.41 0.42 0.44 0.45 0.46 0.47 0.46 0.46 0.46 0.43 0.41 0.38 0.36 0.35 0.32 0.31 0.30 0.29 0.30 0.32 0.33 0.35 0.33 0.33 0.33 0.35 0.35 0.36 0.37 0.38 0.39 0.39 0.40 0.40 0.40 0.41 0.42 0.43 0.43 0.44 0.44 0.44 0.45 0.47 0.48 0.50 0.51
0.37 0.35 0.30 0.32 0.26 0.22 0.25 0.26 0.20 0.13 0.14 0.29 0.28 0.30 0.30 0.29 0.27 0.25 0.26 0.27 0.30 0.33 0.32 0.31 0.31 0.32 0.34 0.37 0.39 0.41 0.43 0.45 0.47 0.44 0.44 0.45 0.45 0.43 0.41 0.41 0.43 0.45 0.46 0.47 0.46 0.46 0.48 0.46 0.43 0.40 0.37 0.36 0.35 0.34 0.32 0.32 0.32 0.31 0.33 0.33 0.34 0.34 0.33 0.35 0.35 0.36 0.36 0.37 0.38 0.40 0.40 0.40 0.39 0.39 0.40 0.41 0.41 0.42 0.41 0.41 0.42 0.42 0.42 0.43 0.43 0.43
0.36 0.34 0.33 0.30 0.30 0.28 0.24 0.22 0.14 0.13 0.27 0.28 0.33 0.33 0.35 0.32 0.32 0.30 0.26 0.29 0.31 0.31 0.33 0.32 0.33 0.35 0.38 0.40 0.43 0.44 0.43 0.44 0.44 0.44 0.45 0.47 0.46 0.44 0.43 0.43 0.45 0.47 0.47 0.48 0.47 0.48 0.49 0.45 0.42 0.40 0.38 0.38 0.34 0.33 0.32 0.31 0.29 0.32 0.32 0.34 0.34 0.34 0.34 0.35 0.35 0.35 0.36 0.36 0.37 0.38 0.40 0.40 0.40 0.40 0.40 0.41 0.41 0.40 0.41 0.41 0.42 0.41 0.43 0.44 0.44 0.45
0.41 0.38 0.36 0.30 0.33 0.24 0.24 0.23 0.22 0.28 0.25 0.27 0.30 0.32 0.35 0.34 0.35 0.32 0.24 0.29 0.35 0.36 0.37 0.34 0.34 0.36 0.38 0.40 0.45 0.45 0.43 0.42 0.39 0.41 0.45 0.47 0.47 0.47 0.47 0.47 0.49 0.50 0.51 0.51 0.51 0.52 0.51 0.47 0.44 0.42 0.40 0.37 0.35 0.32 0.32 0.32 0.31 0.33 0.33 0.34 0.33 0.34 0.34 0.35 0.34 0.35 0.36 0.37 0.37 0.38 0.39 0.40 0.40 0.40 0.40 0.40 0.39 0.39 0.39 0.40 0.41 0.42 0.43 0.42 0.42 0.42
0.45 0.37 0.38 0.32 0.29 0.31 0.26 0.23 0.23 0.23 0.19 0.24 0.32 0.37 0.41 0.42 0.43 0.42 0.35 0.28 0.38 0.39 0.38 0.37 0.35 0.38 0.39 0.43 0.45 0.43 0.44 0.38 0.35 0.38 0.46 0.48 0.49 0.49 0.50 0.52 0.53 0.53 0.53 0.54 0.54 0.55 0.51 0.48 0.45 0.43 0.39 0.37 0.33 0.33 0.34 0.31 0.33 0.35 0.35 0.34 0.34 0.35 0.35 0.35 0.34 0.35 0.36 0.37 0.38 0.39 0.40 0.41 0.41 0.40 0.41 0.41 0.40 0.40 0.41 0.42 0.42 0.41 0.42 0.40 0.40 0.39
0.47 0.45 0.42 0.36 0.31 0.31 0.29 0.24 0.22 0.20 0.22 0.34 0.37 0.40 0.43 0.46 0.46 0.43 0.34 0.27 0.37 0.36 0.39 0.39 0.39 0.41 0.43 0.45 0.45 0.43 0.39 0.33 0.34 0.38 0.50 0.49 0.49 0.50 0.50 0.53 0.54 0.54 0.55 0.56 0.55 0.52 0.50 0.47 0.44 0.41 0.39 0.37 0.33 0.33 0.34 0.34 0.34 0.36 0.34 0.35 0.35 0.36 0.35 0.34 0.34 0.35 0.35 0.37 0.39 0.40 0.41 0.42 0.42 0.42 0.41 0.40 0.40 0.41 0.41 0.40 0.40 0.41 0.42 0.41 0.41 0.40
0.43 0.42 0.40 0.35 0.32 0.31 0.29 0.26 0.24 0.27 0.25 0.37 0.41 0.42 0.45 0.46 0.46 0.39 0.23 0.25 0.38 0.41 0.39 0.41 0.40 0.42 0.44 0.45 0.44 0.41 0.38 0.33 0.36 0.47 0.52 0.52 0.51 0.52 0.52 0.53 0.54 0.55 0.56 0.56 0.56 0.55 0.52 0.48 0.43 0.38 0.36 0.34 0.34 0.35 0.34 0.34 0.36 0.35 0.35 0.35 0.38 0.37 0.36 0.35 0.36 0.36 0.37 0.39 0.40 0.41 0.42 0.42 0.43 0.42 0.42 0.41 0.41 0.41 0.41 0.41 0.41 0.40 0.41 0.41 0.41 0.41
0.39 0.40 0.40 0.33 0.33 0.33 0.31 0.29 0.31 0.31 0.36 0.40 0.43 0.45 0.45 0.48 0.40 0.26 0.20 0.29 0.42 0.43 0.43 0.43 0.42 0.44 0.46 0.43 0.42 0.38 0.43 0.44 0.50 0.51 0.54 0.54 0.53 0.53 0.55 0.55 0.55 0.55 0.54 0.54 0.55 0.55 0.52 0.46 0.42 0.38 0.36 0.36 0.36 0.35 0.35 0.36 0.37 0.35 0.36 0.38 0.38 0.38 0.37 0.38 0.39 0.38 0.37 0.40 0.40 0.41 0.41 0.42 0.43 0.42 0.42 0.42 0.41 0.41 0.41 0.41 0.40 0.41 0.41 0.41 0.42 0.41
0.38 0.39 0.40 0.40 0.35 0.32 0.33 0.31 0.30 0.33 0.39 0.44 0.47 0.47 0.49 0.37 0.26 0.23 0.37 0.47 0.45 0.45 0.46 0.45 0.45 0.48 0.46 0.44 0.44 0.43 0.46 0.52 0.50 0.51 0.50 0.52 0.51 0.51 0.53 0.54 0.54 0.54 0.56 0.57 0.57 0.54 0.51 0.45 0.41 0.40 0.38 0.38 0.37 0.36 0.36 0.36 0.37 0.36 0.37 0.38 0.40 0.40 0.41 0.41 0.40 0.39 0.39 0.40 0.40 0.40 0.41 0.42 0.42 0.43 0.42 0.42 0.42 0.41 0.41 0.42 0.42 0.41 0.40 0.41 0.41 0.40
0.38 0.35 0.33 0.34 0.37 0.38 0.36 0.32 0.30 0.27 0.39 0.46 0.50 0.46 0.48 0.32 0.32 0.43 0.49 0.49 0.48 0.48 0.47 0.48 0.48 0.51 0.48 0.45 0.47 0.46 0.49 0.49 0.49 0.49 0.51 0.51 0.52 0.52 0.52 0.53 0.52 0.53 0.54 0.55 0.53 0.53 0.49 0.43 0.40 0.39 0.38 0.38 0.36 0.37 0.37 0.38 0.37 0.37 0.37 0.40 0.41 0.42 0.42 0.43 0.42 0.41 0.40 0.40 0.41 0.41 0.41 0.41 0.41 0.41 0.41 0.41 0.42 0.41 0.41 0.41 0.41 0.39 0.39 0.38 0.39 0.38
0.46 0.37 0.36 0.38 0.42 0.33 0.33 0.30 0.30 0.38 0.50 0.54 0.46 0.38 0.45 0.44 0.52 0.51 0.49 0.47 0.54 0.53 0.50 0.49 0.50 0.52 0.53 0.48 0.48 0.48 0.49 0.49 0.49 0.51 0.52 0.53 0.54 0.55 0.54 0.54 0.55 0.55 0.55 0.56 0.54 0.53 0.47 0.43 0.41 0.40 0.39 0.38 0.37 0.37 0.38 0.38 0.38 0.38 0.38 0.41 0.43 0.43 0.44 0.44 0.43 0.42 0.41 0.40 0.41 0.41 0.40 0.40 0.40 0.40 0.40 0.40 0.42 0.41 0.39 0.38 0.39 0.38 0.36 0.36 0.35 0.34
0.46 0.42 0.43 0.37 0.45 0.41 0.36 0.39 0.47 0.52 0.53 0.55 0.52 0.51 0.54 0.56 0.57 0.58 0.54 0.52 0.50 0.49 0.53 0.50 0.49 0.53 0.54 0.51 0.50 0.49 0.48 0.49 0.49 0.51 0.51 0.52 0.54 0.54 0.53 0.52 0.53 0.54 0.54 0.53 0.53 0.53 0.46 0.43 0.41 0.40 0.39 0.38 0.38 0.38 0.39 0.40 0.39 0.38 0.38 0.43 0.43 0.43 0.44 0.44 0.43 0.42 0.40 0.40 0.39 0.38 0.38 0.38 0.38 0.39 0.39 0.41 0.41 0.39 0.37 0.37 0.37 0.35 0.35 0.35 0.34 0.33
0.53 0.52 0.56 0.48 0.44 0.51 0.53 0.53 0.56 0.57 0.56 0.54 0.57 0.57 0.56 0.58 0.59 0.59 0.55 0.51 0.53 0.54 0.54 0.51 0.52 0.52 0.55 0.56 0.50 0.50 0.49 0.50 0.50 0.51 0.52 0.54 0.54 0.56 0.55 0.55 0.54 0.56 0.56 0.55 0.54 0.52 0.46 0.44 0.44 0.42 0.39 0.38 0.38 0.38 0.40 0.40 0.40 0.37 0.40 0.44 0.43 0.45 0.45 0.44 0.43 0.41 0.39 0.38 0.37 0.37 0.38 0.38 0.38 0.38 0.39 0.40 0.39 0.38 0.37 0.36 0.35 0.33 0.32 0.32 0.31 0.31
0.48 0.52 0.49 0.43 0.49 0.45 0.39 0.53 0.53 0.53 0.54 0.55 0.56 0.59 0.60 0.60 0.58 0.59 0.58 0.56 0.55 0.56 0.55 0.56 0.55 0.53 0.53 0.56 0.54 0.52 0.52 0.52 0.51 0.52 0.53 0.53 0.54 0.55 0.55 0.54 0.54 0.54 0.54 0.53 0.54 0.52 0.47 0.44 0.43 0.41 0.39 0.37 0.38 0.39 0.40 0.41 0.41 0.40 0.43 0.43 0.43 0.45 0.45 0.44 0.43 0.40 0.38 0.37 0.37 0.38 0.39 0.39 0.39 0.39 0.39 0.38 0.39 0.39 0.38 0.37 0.37 0.35 0.32 0.31 0.30 0.30
0.40 0.53 0.46 0.45 0.45 0.43 0.43 0.52 0.56 0.59 0.60 0.61 0.60 0.57 0.57 0.59 0.60 0.61 0.61 0.59 0.58 0.58 0.58 0.57 0.58 0.55 0.56 0.53 0.53 0.53 0.54 0.55 0.52 0.52 0.52 0.53 0.54 0.56 0.55 0.55 0.55 0.55 0.55 0.56 0.56 0.52 0.46 0.45 0.43 0.42 0.40 0.38 0.39 0.39 0.41 0.42 0.42 0.42 0.43 0.42 0.43 0.44 0.44 0.42 0.41 0.40 0.39 0.38 0.40 0.41 0.41 0.38 0.34 0.38 0.38 0.36 0.37 0.37 0.37 0.37 0.37 0.36 0.31 0.30 0.29 0.28
0.47 0.50 0.37 0.42 0.41 0.46 0.52 0.55 0.57 0.59 0.60 0.60 0.62 0.63 0.62 0.62 0.61 0.62 0.63 0.62 0.61 0.58 0.58 0.60 0.60 0.57 0.57 0.54 0.55 0.54 0.54 0.55 0.55 0.55 0.53 0.53 0.54 0.55 0.55 0.56 0.57 0.56 0.56 0.55 0.57 0.54 0.50 0.47 0.45 0.45 0.43 0.41 0.42 0.41 0.41 0.43 0.44 0.44 0.42 0.42 0.42 0.42 0.41 0.41 0.40 0.41 0.40 0.40 0.41 0.40 0.40 0.40 0.39 0.38 0.37 0.38 0.38 0.35 0.34 0.33 0.34 0.36 0.37 0.32 0.30 0.27
0.43 0.35 0.41 0.42 0.37 0.37 0.38 0.45 0.53 0.47 0.47 0.55 0.60 0.63 0.64 0.66 0.67 0.66 0.63 0.61 0.61 0.59 0.59 0.57 0.59 0.60 0.57 0.56 0.55 0.55 0.54 0.56 0.58 0.57 0.55 0.54 0.54 0.55 0.56 0.56 0.57 0.57 0.56 0.57 0.58 0.55 0.53 0.51 0.49 0.48 0.47 0.45 0.45 0.44 0.42 0.43 0.45 0.45 0.44 0.41 0.41 0.41 0.40 0.41 0.41 0.40 0.41 0.41 0.42 0.42 0.40 0.41 0.40 0.38 0.37 0.37 0.37 0.38 0.35 0.33 0.31 0.30 0.35 0.33 0.28 0.27
0.39 0.40 0.42 0.38 0.36 0.35 0.44 0.51 0.57 0.58 0.57 0.60 0.62 0.65 0.67 0.67 0.66 0.64 0.62 0.60 0.59 0.59 0.59 0.58 0.56 0.56 0.56 0.56 0.56 0.54 0.55 0.56 0.58 0.59 0.56 0.55 0.55 0.56 0.57 0.57 0.57 0.57 0.57 0.57 0.57 0.55 0.53 0.53 0.53 0.52 0.50 0.48 0.47 0.45 0.43 0.43 0.44 0.45 0.45 0.42 0.41 0.40 0.40 0.42 0.41 0.42 0.43 0.42 0.42 0.42 0.42 0.41 0.40 0.40 0.39 0.38 0.36 0.36 0.36 0.38 0.36 0.33 0.29 0.29 0.29 0.27
Wind_Speed
3 3 3 3 3 4 5 7 6 6 8 10 11 10 10 10 8 8 9 8 8 7 7 8 9 9 9 9 9 9 9 8 8 8 8 9 9 9 9 8 8 8 9 9 9 9 10 11 12 13 14 15 16 17 18 19 19 20 21 22 23 23 24 24 25 25 25 26 26 26 26 26 26 26 26 25 25 25 25 24 24 24 24 25 25 26
3 3 4 3 2 3 4 4 4 5 7 8 9 9 9 9 8 8 8 8 8 7 7 8 9 9 9 9 9 9 9 9 8 8 8 9 9 9 9 9 9 9 10 10 10 10 11 11 12 13 14 15 16 17 18 19 19 20 21 22 23 23 24 25 25 25 25 26 26 26 26 27 27 27 27 26 26 26 26 26 25 25 25 25 25 26
3 4 4 4 4 4 4 4 5 6 7 7 8 8 8 8 8 8 7 7 7 7 7 9 8 8 9 9 9 9 9 8 8 8 8 9 10 10 9 9 10 10 10 10 10 10 11 11 12 13 14 15 16 17 18 19 19 20 21 21 23 23 24 25 25 25 26 26 26 27 27 27 27 28 28 27 27 28 28 28 27 27 26 26 26 26
3 3 3 4 4 4 4 4 5 5 5 5 7 7 8 9 9 8 7 7 6 6 8 9 7 7 9 9 9 9 9 9 8 8 8 9 9 9 9 9 10 10 10 10 10 10 11 11 12 13 14 16 17 18 19 19 20 20 20 21 22 23 23 24 25 26 26 27 27 27 27 28 28 28 28 28 28 28 28 28 28 28 27 27 27 27
2 2 2 3 4 4 4 4 5 5 4 4 5 6 8 10 8 8 8 7 6 6 8 9 7 7 9 10 10 10 9 9 9 9 9 9 9 9 9 9 10 10 10 11 11 11 11 12 13 14 15 17 18 18 19 19 19 20 20 21 21 22 22 23 24 25 26 27 27 27 27 27 27 28 28 28 28 28 28 28 28 28 28 27 27 27
2 1 1 3 4 4 4 4 4 4 4 5 4 5 8 9 8 9 10 8 6 6 9 9 7 8 10 11 10 10 11 11 10 11 11 10 10 11 11 10 10 11 11 11 11 12 12 13 14 15 16 17 17 18 18 18 19 19 19 20 21 21 22 22 23 24 24 25 25 26 26 27 27 27 27 27 28 28 28 28 28 28 28 28 27 27
1 1 2 2 3 4 4 4 4 4 5 5 5 5 7 8 8 10 10 8 6 6 9 10 8 8 9 12 12 12 12 12 12 13 13 12 12 12 12 12 12 12 12 12 12 12 13 14 15 15 16 17 17 17 17 17 17 18 18 19 20 20 21 21 22 23 23 23 23 24 24 26 27 27 27 27 28 28 28 28 28 28 28 28 28 28
0 1 2 2 3 4 3 3 3 5 5 4 5 7 7 8 8 9 9 8 6 5 8 10 9 9 10 11 13 13 13 13 14 15 15 14 14 13 13 12 12 12 12 12 12 13 13 14 14 15 15 16 16 16 16 16 16 16 17 18 19 19 20 21 21 22 22 22 23 23 23 24 25 27 27 27 27 27 28 28 28 27 27 28 28 28
0 0 1 2 3 3 2 2 2 4 4 5 6 7 7 7 8 8 8 7 6 6 8 10 10 10 10 9 11 13 14 15 16 16 16 15 14 14 13 13 12 12 12 12 12 12 12 13 13 14 15 15 15 15 15 15 16 17 17 18 19 19 20 21 22 22 22 22 23 22 22 23 24 25 26 27 27 27 27 27 27 27 27 27 27 27
0 1 0 1 2 2 2 2 2 3 3 5 7 6 5 5 6 7 7 6 7 8 9 10 10 10 10 9 10 12 14 15 15 15 15 16 15 15 13 13 12 11 11 11 11 11 11 12 12 13 14 14 15 15 15 16 17 17 18 19 20 20 21 21 22 23 23 23 23 22 22 22 23 23 24 25 26 26 26 27 27 26 26 26 26 26
1 1 1 1 1 2 3 2 2 2 4 7 7 6 5 5 5 5 6 6 7 9 9 9 10 10 10 9 10 11 13 14 14 14 14 15 16 14 13 12 11 11 11 10 10 10 11 11 12 13 13 14 15 15 16 17 17 18 19 20 21 21 22 22 23 24 24 24 23 22 22 22 22 22 22 23 24 25 25 26 26 26 26 25 25 26
2 2 2 2 2 3 3 3 3 4 6 7 6 5 5 4 5 5 6 6 8 8 7 7 9 11 11 10 10 11 12 12 13 13 12 14 15 14 13 12 11 11 11 10 10 11 11 12 13 13 14 15 15 16 17 17 17 18 19 20 21 22 23 23 24 24 24 23 23 22 21 21 20 20 21 21 22 23 24 24 24 25 25 25 25 25
2 1 2 3 3 3 4 4 3 4 6 6 6 6 6 4 5 6 6 7 8 7 6 6 8 11 12 12 11 11 11 11 12 13 12 13 14 13 13 12 12 11 11 11 11 12 12 13 13 14 14 15 16 16 17 17 18 19 20 21 22 22 23 23 23 23 22 22 20 19 19 19 18 18 19 19 20 21 22 23 23 24 24 24 24 24
2 1 3 4 3 3 4 4 3 4 6 6 6 6 6 5 5 6 6 7 8 7 6 7 8 10 12 11 10 11 11 11 11 12 12 13 13 13 13 13 12 12 12 12 12 13 13 14 14 15 15 15 16 17 18 18 19 20 21 21 22 22 23 22 21 20 20 19 17 16 16 16 16 16 16 16 17 18 19 20 21 22 23 24 24 24
1 1 2 3 3 3 4 4 3 3 5 6 5 6 7 6 6 7 6 7 7 6 6 7 8 11 11 9 9 10 11 11 12 11 11 12 13 13 13 13 13 13 13 13 13 14 14 14 15 15 15 16 17 18 18 19 20 20 21 21 21 22 22 21 20 18 18 16 14 13 12 12 13 13 13 13 14 14 16 17 19 21 22 23 23 23
1 1 3 2 2 2 3 3 3 3 5 5 5 6 7 7 7 6 6 7 8 8 9 9 10 11 11 11 11 11 11 11 11 12 12 13 13 13 13 14 13 13 13 13 14 14 14 15 15 16 16 17 18 19 19 20 20 20 20 20 21 21 21 20 18 17 16 14 12 11 11 11 11 11 11 11 11 12 13 14 16 18 20 22 23 23
1 1 4 3 3 3 2 2 3 3 3 3 5 6 5 5 6 7 6 6 8 11 10 9 11 12 11 11 10 10 11 12 12 12 13 14 14 14 14 14 14 14 14 14 14 15 15 15 16 16 17 18 19 19 19 19 19 19 19 20 20 20 20 19 17 15 14 13 11 10 10 10 10 10 10 10 10 11 11 12 14 15 17 19 21 22
0 1 3 4 3 3 2 2 3 3 4 3 4 4 3 4 6 7 7 6 8 10 9 9 12 12 11 10 9 10 11 12 13 13 13 14 14 14 15 15 15 15 15 15 15 15 15 16 16 17 17 18 18 19 19 18 18 18 18 19 19 19 18 17 16 14 13 12 11 10 10 10 10 10 10 10 10 10 10 11 12 13 14 16 18 20
0 1 3 4 3 3 3 4 3 4 5 5 4 4 4 5 5 6 7 7 8 9 9 9 10 10 11 10 8 9 11 12 13 13 14 14 14 14 15 15 15 15 14 14 15 15 15 15 15 16 16 17 17 17 17 17 17 17 17 18 18 17 16 15 14 13 12 11 10 10 10 10 9 9 10 10 10 10 10 10 10 11 13 14 15 17
1 1 1 4 3 3 4 5 5 4 4 5 5 5 5 6 5 5 6 7 8 8 9 9 9 9 9 7 7 8 9 11 12 13 14 14 14 14 14 14 14 14 14 14 14 14 14 14 14 14 15 16 16 16 15 15 15 16 16 16 16 16 14 14 13 12 11 10 9 9 9 9 9 9 9 9 9 9 9 10 10 10 11 12 13 15
1 2 1 3 4 4 5 5 5 4 4 5 6 6 6 5 5 6 7 7 8 8 8 8 9 8 6 6 7 8 8 8 10 11 12 13 14 14 14 13 13 13 13 13 13 13 13 12 13 13 14 14 14 14 14 14 14 14 14 14 15 14 13 12 12 11 10 10 9 9 9 9 9 9 9 9 9 9 9 10 10 10 11 11 12 13
2 3 3 3 3 4 4 3 3 4 4 5 5 5 6 5 5 6 7 6 7 8 8 8 9 8 5 6 7 7 6 7 8 9 10 11 12 13 12 12 12 12 12 12 12 12 11 11 12 13 13 13 13 12 12 12 12 13 13 13 13 12 12 11 11 10 10 10 10 10 10 10 9 9 9 9 9 9 10 10 10 11 11 11 12 12
3 4 5 5 5 4 3 3 4 5 6 7 6 6 6 6 6 7 7 6 6 7 7 8 9 7 5 5 6 6 6 6 6 7 8 9 10 11 11 11 11 11 11 11 10 10 10 11 11 12 12 12 12 11 11 11 12 12 12 12 12 11 11 11 10 10 9 9 10 10 10 10 10 10 10 10 10 10 10 11 11 12 12 12 13 13
4 4 5 6 6 5 5 5 6 6 7 8 8 7 7 7 8 8 8 8 7 8 7 8 8 6 4 5 5 6 6 6 5 6 7 8 8 9 10 11 11 10 10 10 10 10 10 10 11 11 11 11 11 10 10 11 11 11 11 11 11 11 11 10 10 10 9 9 9 10 10 10 10 10 10 10 10 11 11 12 12 12 13 13 14 14
5 4 5 6 6 6 6 6 7 7 8 9 8 8 8 8 8 8 9 9 9 10 10 9 9 6 4 5 6 7 6 6 5 5 6 7 7 8 9 9 9 9 9 10 9 9 9 10 10 10 10 10 10 10 10 10 10 10 10 10 10 10 10 10 9 9 9 9 9 9 10 10 10 10 10 10 11 11 12 12 13 13 13 13 14 14
6 6 6 7 7 6 6 5 5 6 7 8 9 9 9 10 9 9 9 9 10 10 9 10 10 7 5 6 7 7 6 6 5 5 5 7 7 7 8 8 8 8 9 9 9 9 9 10 10 10 9 10 10 9 9 9 9 9 9 10 9 9 10 9 9 9 9 9 9 9 10 10 10 10 10 10 11 12 12 12 13 13 13 13 13 14
7 7 8 10 10 9 7 6 6 6 7 8 9 9 10 10 10 10 10 10 10 10 10 10 11 10 9 9 8 7 7 7 6 6 6 7 7 7 7 7 7 8 8 8 8 8 8 9 9 9 9 9 9 9 9 9 9 9 9 9 9 9 9 9 9 9 9 9 9 9 9 9 10 10 10 10 11 11 11 12 12 12 12 12 13 13
8 8 9 10 11 12 11 10 9 9 10 11 11 11 11 11 11 12 12 12 11 11 11 10 10 11 11 10 9 9 9 8 7 7 8 8 8 8 8 8 8 8 8 8 8 8 8 8 8 8 8 8 8 9 9 9 9 9 9 9 9 9 9 9 9 9 9 9 9 9 9 9 9 9 10 10 10 11 11 11 11 11 11 12 12 12
9 9 8 9 11 12 11 11 11 11 12 12 13 13 13 13 13 14 15 14 13 14 14 12 12 13 13 12 11 11 10 10 9 9 9 9 9 9 8 8 8 8 8 8 8 8 8 8 8 7 7 8 8 8 8 8 8 8 8 9 9 9 8 8 9 9 9 9 9 9 9 8 9 9 9 10 10 10 10 10 10 10 11 11 11 11
9 8 8 9 10 11 11 11 11 12 13 14 14 15 15 15 16 16 16 16 16 17 17 16 17 17 15 14 13 12 11 11 10 10 10 10 10 10 9 9 9 9 9 8 8 8 8 8 8 8 8 8 8 8 8 8 8 8 8 8 8 8 8 8 8 8 9 9 9 9 8 8 8 8 8 9 9 9 9 9 10 10 10 10 11 11
9 8 7 8 10 11 10 10 10 12 13 14 15 15 15 16 16 16 16 16 17 17 17 17 18 17 14 13 13 12 11 10 11 11 11 11 11 11 10 10 10 9 9 9 8 8 8 8 8 8 8 8 8 8 8 8 8 8 8 8 8 8 8 8 8 8 8 8 8 8 8 8 8 8 8 8 8 8 9 9 9 9 10 10 11 11
9 9 9 9 11 10 9 9 10 11 13 15 17 16 16 16 16 16 16 16 16 17 17 16 16 15 13 12 12 11 10 11 12 12 11 11 11 11 11 11 10 10 9 9 9 8 8 8 8 8 8 8 8 8 8 8 8 8 8 8 8 8 8 8 8 8 8 8 8 8 8 8 8 8 8 8 8 8 9 9 9 9 9 10 10 11
11 11 10 10 11 10 9 9 11 12 13 14 13 12 13 13 14 14 15 15 16 16 15 15 14 13 12 11 12 12 12 12 12 12 12 12 11 12 12 11 11 10 10 9 9 9 9 9 8 8 8 8 8 8 8 8 8 8 8 8 8 8 8 8 8 8 8 8 8 8 7 7 7 8 8 8 8 9 9 9 9 9 10 10 10 10
12 13 12 11 11 12 10 10 12 13 12 10 8 8 10 11 12 13 13 14 14 14 14 15 14 14 13 13 14 13 12 13 13 12 12 12 12 12 12 11 11 10 10 9 9 9 9 9 8 8 8 8 8 8 8 7 7 8 8 8 8 7 7 7 7 7 7 7 7 7 7 7 7 7 8 8 8 8 9 9 10 10 10 10 10 11
13 13 13 12 12 13 12 12 12 11 10 9 9 10 11 12 13 14 14 14 14 14 15 15 15 15 14 14 14 13 13 12 12 12 12 12 12 12 12 11 11 10 10 10 10 9 9 9 9 9 9 8 8 8 8 7 7 7 7 7 7 7 7 7 7 7 7 7 7 7 7 7 7 7 8 8 8 8 9 9 9 10 10 10 11 11
14 14 13 13 13 13 12 12 12 11 11 12 11 9 9 9 10 11 13 13 13 13 14 14 14 14 14 14 13 12 12 12 12 12 12 12 12 12 12 11 11 10 10 10 10 10 10 10 9 9 9 8 8 8 7 7 7 7 7 7 6 6 6 6 7 7 7 7 7 7 7 7 7 7 8 8 8 9 9 9 10 10 10 10 11 11
16 15 14 14 14 13 13 14 13 14 14 13 9 7 7 8 8 9 11 12 11 11 12 12 13 13 13 12 11 10 10 11 12 12 11 11 11 11 11 11 10 11 10 10 10 10 10 10 9 9 9 8 8 8 7 7 7 7 6 6 6 6 6 6 6 6 7 7 7 7 7 7 7 7 8 8 9 9 9 10 10 11 11 11 11 11
17 16 15 14 14 13 14 14 13 13 13 9 7 7 8 8 8 9 11 11 9 8 9 10 10 10 10 9 8 8 9 11 12 11 10 10 11 11 10 10 10 10 10 10 10 10 10 10 9 9 8 8 8 8 7 7 7 6 6 6 6 6 6 6 6 6 6 6 6 6 7 7 7 8 8 8 9 9 10 10 11 11 11 11 12 12
16 16 16 16 15 14 15 15 13 13 12 10 9 8 8 9 9 11 11 9 6 5 7 7 8 8 8 8 7 8 9 11 11 9 8 9 10 11 11 10 10 10 10 10 10 10 10 10 9 9 8 8 8 8 7 7 7 7 6 6 6 6 6 5 5 5 5 6 6 6 7 7 7 7 8 8 9 9 10 10 11 11 11 11 12 12
15 15 16 17 17 16 16 16 15 14 13 12 10 9 8 9 10 11 11 8 5 5 7 7 7 8 7 7 7 8 9 10 9 7 7 9 10 11 11 10 10 10 10 10 10 10 10 10 9 9 8 8 8 7 7 7 7 7 6 6 6 6 5 5 5 5 5 5 6 6 7 7 7 7 8 8 9 9 10 10 11 11 12 12 12 13
13 15 16 17 18 17 18 18 16 15 15 15 14 11 10 10 11 12 10 8 7 7 7 8 8 8 8 8 8 8 9 8 7 7 8 9 9 10 10 10 10 11 11 10 10 10 10 10 9 9 8 8 8 7 7 7 7 7 6 6 6 6 5 5 5 5 5 5 6 6 6 6 7 7 8 8 9 9 10 10 11 12 12 13 13 13
13 14 15 17 17 17 18 18 18 16 15 15 15 13 12 12 13 12 10 8 9 9 9 10 10 9 9 9 9 9 9 7 7 8 8 8 9 9 9 10 10 10 10 9 10 10 9 9 9 9 8 8 8 8 7 7 7 7 6 6 6 6 6 6 5 5 5 5 6 6 6 6 6 7 8 9 9 10 10 11 12 13 13 13 14 14
13 13 15 16 16 17 17 18 18 16 13 11 11 11 12 13 12 10 10 10 10 11 11 11 11 11 11 11 11 11 10 8 8 8 8 8 8 8 9 9 9 9 9 9 9 9 9 9 9 8 8 8 8 8 7 7 7 7 7 7 6 6 6 6 6 5 5 5 5 5 5 6 7 7 8 9 10 10 11 12 13 13 14 14 14 14
14 15 16 16 15 16 17 17 17 16 13 13 13 12 13 14 13 12 12 13 13 13 13 13 13 12 12 12 12 11 10 9 8 8 8 8 8 8 9 9 9 9 9 9 9 9 9 9 8 8 8 8 8 8 7 7 7 7 7 7 6 6 6 6 5 5 5 5 5 5 5 6 7 7 8 9 10 11 12 13 13 14 14 14 15 15
15 15 16 16 16 18 19 18 17 16 15 16 17 17 16 17 17 16 16 16 16 16 15 15 15 14 13 13 12 12 11 11 10 9 9 9 9 9 9 9 9 9 9 9 9 9 9 8 8 8 8 8 8 8 7 7 7 7 6 6 6 6 6 5 5 5 4 4 5 5 5 6 7 8 9 9 10 11 12 13 13 14 14 15 15 15
16 16 16 17 18 20 21 21 20 21 20 21 21 21 19 19 19 18 18 18 18 17 16 15 15 14 14 14 14 13 12 11 11 10 10 9 9 9 9 9 9 8 8 8 9 9 9 8 8 8 8 8 8 8 8 7 7 7 7 6 6 6 6 5 5 4 4 4 5 5 6 6 7 8 9 10 11 12 13 13 14 14 15 15 16 16
18 18 18 19 20 21 21 20 21 22 23 22 22 22 21 21 21 20 20 19 18 18 17 16 16 15 15 15 15 15 14 12 12 11 10 10 10 9 8 9 9 8 9 8 8 8 8 9 8 8 8 8 8 8 8 8 7 7 7 6 6 6 5 5 4 4 4 4 5 5 6 7 8 9 9 10 11 12 13 14 14 15 15 16 17 17
17 17 18 20 22 22 22 22 22 23 23 22 22 22 22 22 22 21 21 20 20 19 19 18 17 16 15 15 16 16 15 14 13 12 11 10 10 9 9 9 9 9 9 9 8 8 8 9 9 8 8 8 8 8 8 8 7 7 7 6 6 6 5 5 5 5 5 5 5 6 7 8 8 9 10 11 12 13 13 14 15 15 16 17 17 18
18 17 19 21 22 23 23 23 23 24 24 24 24 24 23 24 24 23 23 22 21 21 20 19 18 17 16 16 16 16 16 15 14 13 12 11 11 10 10 10 10 9 9 9 9 8 9 9 9 8 8 8 8 8 8 8 8 7 7 7 6 6 6 6 5 6 6 6 7 7 8 8 9 10 11 12 12 13 14 14 15 16 16 17 18 18
20 20 21 21 22 22 22 22 23 23 24 24 24 24 24 24 24 24 23 23 23 22 22 21 19 18 17 17 16 16 16 16 15 14 14 13 12 11 11 11 11 10 10 9 9 9 9 9 9 9 9 8 8 8 8 8 8 8 8 7 7 7 7 6 6 7 7 7 8 8 9 9 10 11 12 12 13 13 14 15 16 16 17 17 18 18
23 23 22 22 22 23 23 23 24 24 24 24 24 25 25 24 24 24 24 24 24 23 22 21 20 19 18 18 17 17 17 17 16 15 15 14 13 12 12 12 12 12 11 10 10 10 10 10 9 9 9 9 9 9 9 9 9 8 8 8 8 8 8 8 8 8 8 9 9 9 10 10 11 12 12 13 14 14 14 15 16 16 17 17 18 18
Wind_Direction
131 140 155 172 180 187 198 214 224 212 203 202 201 204 200 196 197 193 192 198 200 199 198 191 185 184 187 191 192 193 195 196 199 204 209 215 219 222 224 228 233 239 247 254 261 267 272 277 280 283 285 288 289 290 290 290 289 289 288 287 286 286 285 284 284 282 281 280 279 277 275 273 271 270 268 267 265 264 263 263 263 261 260 258 256 254
106 107 103 99 121 146 166 186 193 191 192 195 196 193 190 190 183 179 183 191 201 200 185 180 178 180 188 192 194 197 199 205 211 213 215 218 221 225 228 232 236 242 248 254 261 267 273 279 282 284 287 290 292 293 294 294 293 292 291 290 288 287 286 285 284 283 282 281 279 277 274 272 270 269 268 266 264 263 262 262 262 261 260 259 257 255
98 97 98 101 118 133 141 156 159 165 174 179 183 181 178 177 168 169 177 183 199 200 182 182 182 184 193 199 202 206 210 218 223 225 226 226 227 232 235 238 239 243 248 255 262 268 274 280 284 287 289 292 294 295 295 295 294 294 293 292 290 289 287 286 285 284 283 282 280 278 274 272 269 267 266 265 264 262 261 260 260 260 259 259 257 255
106 98 100 123 146 147 140 153 154 151 159 165 171 177 176 174 172 173 178 184 201 203 188 187 191 195 201 206 211 217 220 222 227 230 233 235 236 239 241 242 244 246 252 258 264 271 277 282 286 290 292 293 294 294 295 295 295 294 293 293 292 290 289 288 287 285 284 283 281 278 275 271 269 267 265 264 263 262 261 260 259 259 258 258 256 255
106 107 119 150 171 169 155 161 166 157 157 162 169 175 174 180 186 181 179 184 191 197 195 193 201 208 210 212 216 222 224 224 227 231 234 237 239 241 243 246 250 253 258 262 268 274 279 284 289 293 295 295 295 295 295 295 294 293 293 293 292 292 291 289 288 287 285 283 281 279 275 272 268 266 265 263 261 261 260 260 259 258 257 257 256 254
89 125 188 183 182 184 173 174 183 180 174 173 178 180 177 183 187 178 181 190 192 204 207 207 221 220 213 217 219 221 226 227 230 233 235 238 239 242 244 247 252 256 262 266 270 275 281 287 292 295 297 298 298 297 295 294 293 293 292 292 292 292 291 290 290 289 287 284 282 279 276 272 269 266 264 263 261 260 259 259 259 258 257 256 256 254
74 142 211 210 192 190 185 183 192 201 197 185 186 189 184 185 185 181 189 204 213 218 211 216 238 234 220 223 224 226 230 230 233 236 237 239 241 243 245 248 253 257 261 265 270 276 282 288 292 296 298 299 299 297 295 293 293 293 293 293 294 294 293 293 292 291 290 287 284 281 277 273 269 266 265 263 261 260 259 259 259 258 257 256 255 254
66 155 193 210 197 194 194 190 193 212 213 189 184 190 188 192 195 194 204 218 226 221 210 220 241 249 243 234 225 229 234 234 236 238 239 241 242 243 245 248 252 256 260 264 269 275 282 287 291 294 296 297 298 297 296 295 295 296 297 297 298 299 297 296 296 294 292 290 288 285 280 275 270 266 264 263 262 260 259 258 258 258 257 256 254 253
3 124 175 207 200 192 195 196 200 215 206 177 180 189 191 200 205 207 217 225 225 227 225 225 235 251 257 239 225 232 238 239 240 240 241 241 240 240 242 246 250 255 259 264 269 275 281 285 289 292 295 297 299 299 299 300 300 300 300 301 302 302 300 299 298 297 294 292 289 286 282 278 273 268 264 263 261 260 258 257 257 257 256 256 254 252
98 40 56 221 193 173 166 169 203 216 189 168 177 183 188 200 205 211 224 226 224 237 241 228 228 248 259 243 232 239 243 244 245 244 242 240 238 238 240 243 247 252 258 263 268 273 279 285 290 294 296 299 300 300 301 302 302 302 303 303 303 303 301 300 299 297 296 294 291 287 283 279 275 270 266 263 261 259 258 256 256 255 255 254 253 251
117 98 161 176 153 157 147 139 171 186 161 162 171 173 179 193 200 212 224 226 231 240 241 227 227 247 260 253 243 244 248 250 248 247 244 236 233 235 237 240 244 249 256 261 266 273 280 286 291 295 297 299 301 301 301 301 301 302 303 304 304 304 302 300 300 298 296 295 291 287 282 278 275 272 267 264 261 259 258 256 255 254 254 253 252 251
154 165 168 153 158 170 159 143 144 157 160 169 180 180 183 192 203 215 219 225 241 243 234 232 238 248 258 260 256 252 253 254 249 247 243 231 228 231 235 239 244 250 256 262 268 275 282 287 291 294 296 298 299 301 300 299 300 301 302 304 304 304 303 302 301 299 297 295 290 285 282 279 276 273 269 265 262 260 257 255 254 252 252 252 251 250
159 163 158 165 179 192 188 163 157 174 184 193 196 194 203 205 209 225 225 230 247 248 238 247 252 255 261 264 266 262 256 252 251 249 242 231 228 230 234 240 246 252 258 264 270 277 283 287 291 293 295 296 298 300 300 299 299 300 302 303 304 305 305 304 303 301 300 297 293 287 282 279 277 275 272 267 264 260 257 255 253 251 250 251 250 249
149 152 177 185 180 194 208 198 190 196 201 209 207 210 224 226 225 238 241 246 256 252 246 255 261 266 268 265 268 270 262 252 249 248 241 232 229 232 236 242 248 254 260 265 271 277 282 287 290 292 294 296 298 300 300 299 299 301 303 304 305 306 307 307 306 305 304 302 297 289 283 281 279 277 275 272 266 262 258 255 253 251 249 249 249 249
175 150 164 182 177 190 209 218 225 212 206 215 221 229 241 246 248 251 255 263 267 261 252 253 262 272 274 271 272 276 267 254 246 243 239 233 232 236 240 244 250 254 260 266 272 277 282 286 289 292 294 297 299 301 301 300 301 302 303 304 306 308 309 309 308 308 308 306 301 293 288 285 282 278 276 274 271 266 261 257 254 251 249 248 248 248
223 130 117 136 155 182 198 205 225 231 218 217 230 239 245 254 258 262 271 277 282 280 268 259 267 278 279 274 271 271 263 250 244 241 237 235 235 239 243 246 251 256 261 267 273 278 282 284 288 291 294 297 299 301 301 302 303 303 304 305 307 309 310 310 309 309 309 306 302 298 293 290 287 282 277 275 275 272 267 261 257 253 250 248 247 247
199 134 122 143 157 159 177 189 205 229 225 212 227 235 240 260 266 265 271 272 275 278 274 268 273 279 279 271 265 265 259 246 242 241 238 236 237 240 245 248 253 258 264 269 275 279 281 284 287 291 295 297 299 301 302 302 304 305 305 306 308 310 311 311 309 308 307 304 300 298 296 292 289 287 283 280 279 278 274 268 262 257 253 250 248 247
170 139 144 166 165 151 173 201 199 218 235 232 233 233 239 262 264 264 270 272 271 275 276 275 277 280 280 275 266 262 257 247 243 243 239 238 240 242 246 250 255 260 266 271 276 280 282 285 288 292 296 298 300 301 302 303 305 305 307 308 309 311 312 311 309 306 304 302 298 297 296 294 290 287 286 285 283 282 280 276 270 263 259 254 251 249
245 223 162 178 184 166 189 217 213 215 235 248 253 247 252 262 257 254 265 274 278 281 283 281 281 282 282 280 275 264 256 250 247 244 241 241 242 245 248 251 256 261 267 273 277 280 282 285 289 293 298 300 301 302 303 305 306 306 308 309 310 312 312 310 309 304 302 302 300 298 297 295 292 287 285 285 285 284 283 282 278 273 267 261 257 254
226 263 176 180 194 200 211 224 227 220 224 241 248 245 251 264 268 265 268 278 284 288 292 291 289 290 287 288 290 277 262 253 248 244 244 243 243 247 249 253 258 262 267 273 277 280 282 287 292 296 299 302 303 305 306 306 306 307 308 310 311 313 312 311 310 306 302 302 302 301 300 298 295 292 289 288 289 288 286 285 283 280 276 270 264 261
242 255 238 180 187 221 230 226 233 237 230 232 236 238 242 252 265 272 273 277 284 289 296 297 296 301 305 304 301 294 281 265 251 246 247 244 243 246 249 254 259 262 267 273 278 283 286 290 294 298 300 303 305 307 309 310 310 311 312 312 313 314 314 314 314 310 304 302 301 301 301 299 297 294 293 292 292 291 289 287 285 284 282 279 274 270
263 248 253 233 214 228 233 227 246 259 258 254 248 246 247 249 259 271 273 273 277 284 293 298 301 307 310 308 308 304 300 288 264 249 246 243 241 243 248 254 259 263 268 273 279 285 289 292 296 299 302 304 307 309 313 316 316 317 319 318 317 318 318 317 316 313 306 301 299 300 301 300 299 297 296 295 293 292 291 289 287 285 284 282 281 278
273 259 255 253 246 247 253 253 258 265 264 261 257 256 258 258 260 268 277 284 282 283 292 296 297 305 315 317 319 314 310 305 284 259 246 241 239 241 248 254 258 262 268 273 279 285 289 293 297 300 302 305 308 311 315 319 319 320 323 324 323 324 325 321 316 313 309 302 298 297 298 299 298 299 300 298 296 296 295 293 291 289 286 283 282 281
258 261 257 258 255 254 258 254 253 258 259 255 253 253 257 263 267 270 280 292 291 286 290 292 291 299 315 320 319 315 311 306 292 272 253 243 242 245 251 256 258 261 266 273 280 285 289 293 298 300 301 304 308 311 315 319 320 321 325 327 327 327 329 326 319 313 310 305 301 298 296 296 296 296 298 297 296 297 296 294 293 292 289 287 284 282
255 262 262 265 259 246 248 251 248 249 251 254 257 255 256 263 269 272 278 284 283 280 281 284 290 298 304 306 309 307 303 295 286 275 258 248 248 253 257 259 259 260 265 271 277 282 287 292 298 300 301 303 305 309 313 317 320 323 328 331 331 330 331 331 326 319 312 307 303 301 299 297 295 295 296 296 296 298 298 297 296 294 292 289 287 284
263 266 262 264 260 251 258 265 261 259 255 254 258 258 259 262 262 268 275 274 276 280 276 274 285 295 296 296 301 299 293 290 282 271 257 251 253 258 260 259 259 261 265 269 275 281 286 293 298 298 298 300 303 307 311 315 319 323 329 333 333 332 332 334 334 329 322 315 308 304 303 302 299 299 299 299 299 299 300 300 300 298 295 292 290 288
267 267 261 260 259 261 274 280 276 281 276 266 264 262 261 262 262 267 271 271 278 285 278 273 279 285 288 294 296 290 286 285 280 270 259 254 255 258 260 258 258 262 266 271 277 283 289 294 297 296 295 297 300 304 308 311 315 320 326 330 331 331 331 333 336 336 333 328 320 313 308 306 304 304 304 304 304 303 302 302 302 301 298 296 294 292
269 268 262 261 260 262 270 274 272 275 275 272 272 269 265 264 264 264 266 271 281 283 279 282 285 281 285 294 293 288 285 283 278 271 263 259 257 257 258 258 258 261 266 271 276 282 289 296 298 296 296 298 301 304 307 309 313 317 322 326 328 329 330 330 333 335 335 334 331 325 318 312 308 307 306 306 307 307 306 305 305 304 302 300 298 296
273 271 265 265 267 264 264 267 268 270 271 271 271 271 269 267 266 265 266 269 274 274 275 285 289 282 284 289 288 287 286 281 278 273 266 262 260 258 258 257 257 260 264 268 274 280 288 295 297 296 297 299 302 305 307 309 312 317 322 326 329 331 332 332 333 335 335 335 335 333 328 321 315 311 309 309 309 311 312 310 310 309 308 306 304 302
273 272 267 270 272 267 263 264 267 269 271 271 270 269 268 268 266 267 268 269 270 271 274 279 282 281 283 283 283 285 283 279 279 277 270 264 262 261 260 258 259 261 264 269 274 279 287 294 295 294 295 297 299 302 304 306 311 316 321 325 328 332 334 335 337 338 337 338 339 339 338 335 330 325 320 318 317 316 317 317 315 314 313 312 310 308
268 270 271 273 275 270 263 263 268 270 272 273 273 271 268 267 266 266 267 269 270 270 272 274 277 280 280 279 280 282 278 275 275 273 270 266 263 262 260 258 260 263 266 270 274 279 287 291 292 293 294 296 297 298 300 303 308 312 316 319 323 328 332 335 337 337 336 337 337 338 340 341 341 339 336 332 329 327 325 324 321 319 317 316 314 312
261 266 269 272 275 273 265 266 273 276 277 276 273 270 267 265 265 265 266 267 267 269 271 271 272 276 279 278 278 278 272 269 270 270 268 266 262 259 257 257 259 263 267 270 273 279 285 287 289 292 294 295 295 295 297 300 303 306 310 314 318 323 329 334 336 336 335 335 334 334 335 337 339 340 341 340 339 338 336 333 330 327 324 322 320 318
258 264 269 271 273 274 270 273 281 283 281 279 275 272 270 269 268 269 268 267 268 268 269 269 270 275 280 280 279 277 272 270 270 270 268 266 261 257 255 255 258 262 265 269 272 278 283 285 287 290 292 293 293 293 296 298 300 303 306 309 313 318 325 331 333 335 336 336 335 333 332 333 335 336 338 339 339 340 341 339 337 334 332 331 329 327
257 261 267 269 270 273 274 279 282 280 277 280 283 280 278 277 275 273 272 273 274 272 270 270 272 276 278 278 279 278 275 273 273 271 269 268 263 258 255 255 259 262 264 267 271 276 280 283 285 287 288 290 291 293 295 296 298 301 303 305 309 316 321 326 330 334 337 339 340 339 336 336 337 338 338 338 338 338 340 340 339 338 336 335 335 334
257 259 263 265 267 272 277 280 278 274 275 282 288 286 284 281 278 276 277 278 277 275 272 271 272 273 275 277 277 277 277 278 278 276 272 269 263 257 254 255 260 262 263 266 270 273 276 278 280 282 283 285 289 291 292 293 296 298 300 303 308 314 319 323 327 331 337 340 342 343 342 343 343 343 343 342 342 341 341 341 340 339 338 337 336 336
257 258 261 263 265 268 271 270 269 277 287 288 286 285 285 283 279 279 282 282 278 275 273 272 272 273 274 275 275 277 279 281 280 277 272 267 261 256 255 257 261 262 263 266 268 270 273 275 276 277 279 281 285 287 287 290 293 294 297 302 308 313 318 321 324 329 336 339 341 342 343 344 345 346 346 347 347 347 346 345 344 342 340 339 338 336
254 257 260 262 262 264 268 268 270 280 288 284 275 272 278 283 288 293 294 292 286 279 274 273 274 275 275 276 275 277 279 280 279 275 267 262 258 256 258 260 260 261 263 265 267 269 271 273 273 274 276 278 281 283 283 285 289 290 294 300 305 309 314 318 322 329 334 338 340 341 342 343 345 347 347 348 348 349 348 347 346 344 342 340 340 338
252 254 257 260 260 261 266 271 272 276 280 277 265 265 274 281 289 298 297 293 290 286 280 277 277 277 278 277 275 276 277 278 280 276 263 257 256 254 257 260 259 260 262 263 265 268 270 271 271 271 273 275 277 279 279 282 284 285 290 296 300 305 310 314 321 329 333 336 339 340 340 341 343 344 345 346 346 346 346 345 344 342 341 340 339 338
250 252 254 258 259 258 263 268 267 268 273 276 269 264 266 271 282 293 293 287 287 294 293 289 285 282 281 278 273 274 276 280 285 279 262 257 257 253 255 258 258 260 262 263 265 266 267 267 267 267 270 272 273 275 275 277 279 280 284 290 294 299 305 311 320 327 329 331 334 335 335 336 338 339 341 343 344 343 343 343 342 341 340 340 340 338
250 251 251 254 257 258 260 264 265 265 268 271 268 261 260 270 283 288 285 281 283 291 296 298 294 288 284 279 274 275 278 283 290 284 266 263 262 256 256 258 257 259 262 262 264 265 264 264 263 263 266 268 269 270 271 274 276 277 279 283 287 293 299 304 311 318 320 323 327 328 330 332 334 338 340 341 342 341 341 341 341 341 341 341 339 338
255 253 250 251 255 257 258 262 266 267 266 265 262 255 254 269 279 277 274 277 283 286 293 297 294 289 282 277 276 279 283 288 292 284 273 268 263 258 257 257 257 259 261 260 261 262 262 261 260 260 263 265 266 266 267 270 273 274 276 278 281 286 292 295 300 306 311 315 319 323 326 329 332 336 339 340 340 340 341 341 341 341 341 340 339 338
260 257 253 253 255 256 258 262 265 268 269 266 262 256 253 260 267 267 268 276 279 283 290 292 289 287 281 276 277 282 287 292 290 282 275 268 264 259 256 255 256 258 259 258 258 258 257 257 257 257 258 261 262 263 264 266 268 270 273 274 276 282 286 289 294 299 305 310 314 319 324 329 332 335 337 338 339 340 341 341 341 340 339 338 338 338
263 261 259 256 255 257 258 258 261 267 266 257 254 256 251 252 260 266 268 271 276 282 287 287 285 284 280 277 277 279 283 286 283 279 274 269 264 259 255 253 252 252 254 256 257 255 253 254 254 253 254 257 259 260 260 262 264 267 270 272 275 279 283 287 292 297 302 306 309 314 320 326 331 333 335 337 338 340 340 338 338 339 338 337 337 337
265 263 265 263 258 257 257 255 259 265 260 247 250 260 256 252 260 270 271 272 277 280 281 282 281 280 278 278 278 276 277 277 276 274 270 265 260 257 255 254 251 249 253 257 256 252 251 251 251 250 252 254 255 256 257 259 261 264 268 272 276 278 281 285 290 294 297 299 304 310 317 323 329 332 334 336 337 337 337 337 336 336 336 336 336 335
267 264 269 269 264 262 263 263 264 266 261 253 256 264 263 259 262 267 270 273 276 277 277 278 278 276 275 276 277 275 273 272 269 267 265 261 257 255 255 254 251 250 253 255 253 250 248 249 248 248 250 251 252 253 255 256 259 262 265 271 275 275 277 281 284 286 290 294 301 309 315 322 328 332 333 334 334 335 336 336 336 336 336 335 335 334
269 267 270 271 269 268 268 267 266 265 264 261 261 262 264 264 264 266 269 271 273 274 274 274 275 275 272 272 272 272 270 268 265 263 261 260 258 255 254 254 252 251 253 254 252 248 247 247 247 247 248 249 249 251 252 254 256 259 262 266 270 271 272 273 276 280 286 293 301 309 316 321 325 329 330 331 332 334 334 335 335 335 335 335 334 333
271 267 269 270 269 269 269 268 266 266 266 265 264 262 262 263 263 265 267 268 269 270 270 270 271 273 271 268 266 265 266 266 264 261 259 258 257 254 251 250 249 249 251 253 252 248 245 246 247 247 247 247 247 248 250 252 254 256 259 262 264 264 264 264 268 276 283 292 301 308 315 319 320 322 326 329 330 331 332 333 333 333 333 333 333 332
275 269 270 270 268 267 269 270 268 268 267 267 266 265 264 264 264 264 264 264 265 266 267 268 269 269 268 265 261 260 261 262 261 259 257 255 255 253 249 247 245 246 249 251 252 248 245 245 246 247 246 246 246 247 248 250 252 254 255 257 256 256 257 259 266 276 283 291 299 304 309 314 316 318 321 325 327 329 329 330 330 330 332 332 332 331
276 271 272 274 272 270 270 270 268 268 268 267 266 266 265 265 265 264 263 262 262 262 264 266 267 266 265 263 259 258 258 259 258 256 254 253 253 251 248 245 242 241 243 246 248 247 245 245 246 246 246 245 245 246 247 248 250 251 250 250 250 250 253 260 267 275 282 289 295 300 304 308 312 316 318 321 323 326 328 329 328 328 329 330 330 330
274 273 274 274 272 272 272 270 268 269 270 269 268 267 266 265 264 263 262 261 261 262 264 264 264 263 263 261 258 256 256 257 257 254 252 253 252 249 245 242 239 237 238 241 244 246 247 246 244 244 244 244 243 245 246 246 247 247 247 247 248 250 254 260 267 274 282 288 292 297 301 304 308 313 316 318 319 319 322 326 328 328 328 328 329 330
273 274 274 273 273 274 274 271 270 270 272 272 270 268 267 265 263 262 262 262 262 263 262 262 261 261 261 260 257 255 255 256 256 253 251 251 249 246 242 239 237 235 235 237 241 244 246 244 243 242 243 242 243 244 245 244 244 245 246 247 249 252 256 262 269 276 282 287 290 293 297 300 305 310 312 315 316 315 316 319 323 326 328 328 328 329